Date String (YYYY-MM-DD hh:mm:ss) UTC,Instrument flags,Ambient pressure (hPa),Sample flow (lpm),Bypass flow (lpm),Sample temperature (°C),Ambient temperature (°C),ASC tube jacket temperature (°C),LED temperature (°C),Box temperature (°C),Sample RH (%),Span deviation,Mass concentration (μg/m³),Mass concentration (μg/m³),Mass concentration (μg/m³)
DateTimeUTC,F1_M11,P_M11,Q1_M11,Q2_M11,T1_M11,T2_M11,T3_M11,T4_M11,T5_M11,U1_M11,ZSPAN_M11,X0_M11,X2_M11,X1_M11
2023-04-14 05:00:00,,0815.1,5.01,0.00,28.5,26.8,00.0,36.8,30.0,08.3,0000.0,0006.35,0002.00,0001.20
2023-04-14 05:01:00,,0815.1,5.00,0.00,28.5,26.8,00.0,36.8,30.0,08.3,0000.0,0006.29,0001.98,0001.20
2023-04-14 05:02:00,,0815.1,5.00,0.00,28.5,26.9,00.0,36.8,30.0,08.2,0000.0,0005.46,0001.95,0001.19
2023-04-14 05:03:00,,0815.2,4.99,0.00,28.5,26.9,00.0,36.8,30.0,08.3,0000.0,0005.35,0002.01,0001.18
2023-04-14 05:04:00,,0815.2,5.00,0.00,28.5,26.9,00.0,36.8,30.1,08.4,0000.0,0006.53,0001.99,0001.18
2023-04-14 05:05:00,,0815.2,4.99,0.00,28.5,26.9,00.0,36.8,30.0,08.3,0000.0,0006.88,0002.06,0001.17
2023-04-14 05:06:00,,0815.2,4.99,0.00,28.5,26.9,00.0,36.8,30.0,08.2,0000.0,0006.90,0002.05,0001.17
2023-04-14 05:07:00,,0815.2,4.99,0.00,28.5,26.8,00.0,36.8,30.0,08.3,0000.0,0006.86,0002.04,0001.16
2023-04-14 05:08:00,,0815.3,5.01,0.00,28.5,26.8,00.0,36.8,30.0,08.2,0000.0,0006.58,0002.00,0001.15
2023-04-14 05:09:00,,0815.3,5.01,0.00,28.5,26.8,00.0,36.8,30.0,08.1,0000.0,0006.55,0001.97,0001.15
2023-04-14 05:10:00,,0815.2,4.99,0.00,28.4,26.8,00.0,36.8,29.9,08.1,0000.0,0005.70,0001.95,0001.15
2023-04-14 05:11:00,,0815.3,5.00,0.00,28.4,26.8,00.0,36.8,29.9,08.2,0000.0,0005.61,0001.92,0001.15
2023-04-14 05:12:00,,0815.3,5.01,0.00,28.4,26.7,00.0,36.8,29.9,08.3,0000.0,0005.66,0001.92,0001.13
2023-04-14 05:13:00,,0815.2,5.01,0.00,28.4,26.7,00.0,36.8,29.9,08.2,0000.0,0006.19,0001.94,0001.14
2023-04-14 05:14:00,,0815.3,4.99,0.00,28.4,26.7,00.0,36.8,29.9,08.4,0000.0,0006.01,0001.90,0001.15
2023-04-14 05:15:00,,0815.2,5.00,0.00,28.4,26.7,00.0,36.8,29.9,08.3,0000.0,0004.88,0001.89,0001.15
2023-04-14 05:16:00,,0815.3,5.00,0.00,28.4,26.7,00.0,36.8,29.9,08.3,0000.0,0004.62,0001.82,0001.16
2023-04-14 05:17:00,,0815.2,5.00,0.00,28.4,26.7,00.0,36.8,29.9,08.2,0000.0,0004.60,0001.85,0001.16
2023-04-14 05:18:00,,0815.3,5.00,0.00,28.4,26.7,00.0,36.8,29.9,08.4,0000.0,0004.58,0001.87,0001.16
2023-04-14 05:19:00,,0815.3,4.99,0.00,28.4,26.7,00.0,36.7,29.9,08.3,0000.0,0004.69,0001.92,0001.17
2023-04-14 05:20:00,,0815.3,5.00,0.00,28.4,26.6,00.0,36.7,29.9,08.4,0000.0,0004.53,0001.87,0001.17
2023-04-14 05:21:00,,0815.3,5.00,0.00,28.4,26.6,00.0,36.7,29.9,08.4,0000.0,0004.62,0001.93,0001.18
2023-04-14 05:22:00,,0815.2,5.00,0.00,28.4,26.6,00.0,36.7,29.9,08.2,0000.0,0004.71,0001.96,0001.18
2023-04-14 05:23:00,,0815.3,5.01,0.00,28.4,26.7,00.0,36.7,29.9,08.3,0000.0,0004.57,0001.93,0001.19
2023-04-14 05:24:00,,0815.3,5.01,0.00,28.4,26.7,00.0,36.7,29.9,08.4,0000.0,0003.96,0001.90,0001.18
2023-04-14 05:25:00,,0815.3,5.00,0.00,28.4,26.6,00.0,36.7,29.9,08.3,0000.0,0003.80,0001.87,0001.17
2023-04-14 05:26:00,,0815.3,4.99,0.00,28.3,26.6,00.0,36.7,29.9,08.2,0000.0,0003.73,0001.88,0001.17
2023-04-14 05:27:00,,0815.4,5.00,0.00,28.3,26.6,00.0,36.7,29.9,08.2,0000.0,0003.39,0001.88,0001.17
2023-04-14 05:28:00,,0815.4,5.00,0.00,28.3,26.6,00.0,36.7,29.9,08.2,0000.0,0003.52,0001.88,0001.17
2023-04-14 05:29:00,,0815.4,5.00,0.00,28.3,26.6,00.0,36.7,29.9,08.3,0000.0,0003.57,0001.89,0001.16
2023-04-14 05:30:00,,0815.4,5.00,0.00,28.3,26.7,00.0,36.7,29.9,08.3,0000.0,0003.49,0001.86,0001.16
2023-04-14 05:31:00,,0815.4,5.01,0.00,28.3,26.7,00.0,36.7,29.9,08.3,0000.0,0003.61,0001.93,0001.17
2023-04-14 05:32:00,,0815.5,5.00,0.00,28.3,26.7,00.0,36.7,29.9,08.2,0000.0,0003.84,0001.94,0001.17
2023-04-14 05:33:00,,0815.6,5.01,0.00,28.3,26.7,00.0,36.7,29.9,08.3,0000.0,0003.78,0001.90,0001.17
2023-04-14 05:34:00,,0815.6,5.00,0.00,28.4,26.7,00.0,36.7,29.9,08.3,0000.0,0003.80,0001.91,0001.17
2023-04-14 05:35:00,,0815.5,5.00,0.00,28.3,26.7,00.0,36.7,29.9,08.3,0000.0,0003.82,0001.91,0001.18
2023-04-14 05:36:00,,0815.5,5.00,0.00,28.3,26.7,00.0,36.7,29.9,08.3,0000.0,0003.93,0001.93,0001.18
2023-04-14 05:37:00,,0815.5,4.99,0.00,28.3,26.7,00.0,36.7,29.9,08.3,0000.0,0004.09,0001.95,0001.18
2023-04-14 05:38:00,,0815.4,5.01,0.00,28.3,26.7,00.0,36.7,29.9,08.3,0000.0,0003.98,0001.95,0001.19
2023-04-14 05:39:00,,0815.4,5.00,0.00,28.4,26.7,00.0,36.7,29.9,08.3,0000.0,0003.99,0001.91,0001.19
2023-04-14 05:40:00,,0815.4,5.00,0.00,28.4,26.7,00.0,36.7,29.9,08.2,0000.0,0004.32,0001.90,0001.19
2023-04-14 05:41:00,,0815.4,5.00,0.00,28.4,26.7,00.0,36.7,30.0,08.3,0000.0,0004.38,0001.94,0001.20
2023-04-14 05:42:00,,0815.4,5.00,0.00,28.4,26.7,00.0,36.7,29.9,08.3,0000.0,0004.40,0001.93,0001.20
2023-04-14 05:43:00,,0815.4,5.00,0.00,28.4,26.7,00.0,36.7,29.9,08.3,0000.0,0004.34,0001.88,0001.19
2023-04-14 05:44:00,,0815.4,5.00,0.00,28.4,26.7,00.0,36.7,29.9,08.3,0000.0,0004.21,0001.87,0001.18
2023-04-14 05:45:00,,0815.4,5.01,0.00,28.3,26.7,00.0,36.7,29.9,08.3,0000.0,0004.21,0001.88,0001.19
2023-04-14 05:46:00,,0815.4,5.00,0.00,28.3,26.7,00.0,36.7,29.9,08.3,0000.0,0004.27,0001.88,0001.19
2023-04-14 05:47:00,,0815.4,5.00,0.00,28.3,26.7,00.0,36.7,29.9,08.3,0000.0,0004.28,0001.89,0001.19
2023-04-14 05:48:00,,0815.4,5.00,0.00,28.3,26.7,00.0,36.7,29.9,08.3,0000.0,0004.20,0001.86,0001.18
2023-04-14 05:49:00,,0815.4,5.00,0.00,28.3,26.7,00.0,36.7,29.9,08.3,0000.0,0004.14,0001.83,0001.18
2023-04-14 05:50:00,,0815.4,5.00,0.00,28.3,26.7,00.0,36.7,29.9,08.4,0000.0,0004.12,0001.81,0001.17
2023-04-14 05:51:00,,0815.4,5.00,0.00,28.3,26.7,00.0,36.7,29.9,08.3,0000.0,0003.53,0001.76,0001.16
2023-04-14 05:52:00,,0815.5,5.00,0.00,28.3,26.7,00.0,36.7,29.9,08.3,0000.0,0003.44,0001.72,0001.17
2023-04-14 05:53:00,,0815.6,4.99,0.00,28.4,26.7,00.0,36.7,29.9,08.3,0000.0,0003.29,0001.68,0001.17
2023-04-14 05:54:00,,0815.6,5.00,0.00,28.4,26.7,00.0,36.7,29.9,08.3,0000.0,0003.06,0001.66,0001.18
2023-04-14 05:55:00,,0815.6,5.00,0.00,28.4,26.8,00.0,36.7,30.0,08.3,0000.0,0003.04,0001.67,0001.19
2023-04-14 05:56:00,,0815.6,5.00,0.00,28.4,26.8,00.0,36.7,30.0,08.3,0000.0,0002.96,0001.66,0001.20
2023-04-14 05:57:00,,0815.6,5.00,0.00,28.4,26.8,00.0,36.7,30.0,08.3,0000.0,0002.96,0001.66,0001.21
2023-04-14 05:58:00,,0815.6,5.01,0.00,28.4,26.8,00.0,36.7,30.0,08.4,0000.0,0003.02,0001.71,0001.21
2023-04-14 05:59:00,,0815.6,5.01,0.00,28.4,26.7,00.0,36.7,29.9,08.3,0000.0,0003.25,0001.80,0001.23
